Weather in Carapicuíba

Brazil     23°31′21″S   46°50′07″W
temp.,
°C
wind,
m/s
gust,
m/s
humid.,
%
clouds,
%
prec.,
mm/h
press.,
hPa
HPBL,
m
17 june, thu
thu1700:00+14se468499 0.0 1021616
03:00+14se457995 0.1 1021686
06:00+14se347695 0.0 1020674
09:00+15se337126 0.0 1022676
12:00+18sse33569 0.0 10211062
15:00+19sse435128 0.0 10191313
18:00+15sse56758 0.0 1021576
21:00+14se468374 0.0 1023439
18 june, fri
fri1800:00+14ese358199 0.0 1023560
03:00+14ese357878 0.0 1022480
06:00+13ese368394 0.0 1022415
09:00+14e358199 0.1 1024345
12:00+15e3573100 0.0 1024430
15:00+15ese2373100 0.1 1022437
18:00+15se3583100 0.0 1023498
21:00+14se3688100 0.0 1024344
19 june, sat
sat1900:00+14ese388793 0.0 1022363
03:00+14ese389097 0.0 1022408
06:00+13e369299 0.0 1021314
09:00+15ene3580100 0.0 1022317
12:00+22n595092 0.0 10181031
15:00+25nnw5103767 0.0 10152156
18:00+22nnw2248100 0.0 101524
21:00+17sse237898 0.0 1018218
20 june, sun
sun2000:00+17sw2478100 0.0 1019321
03:00+16nnw128099 0.0 101788
06:00+16nnw387866 0.0 1018320
09:00+18wnw5106724 0.1 1019768
12:00+20wnw595839 0.0 10181276
15:00+22w5104851 0.0 10161567
18:00+17sse567197 0.0 1019534
21:00+15sse486815 0.0 1022550
21 june, mon
mon2100:00+14sse3783100 0.0 1022536
03:00+14se4576100 0.0 1021669
06:00+13ese257992 0.0 1021325
09:00+15ese34695 0.0 1022493
12:00+20e454799 0.0 1020792
15:00+22sse223899 0.0 10181088
18:00+17se5673100 0.0 1019374
21:00+15ese358487 0.0 1020350